{"data":{"norad_id":48574,"epoch":"2026-05-25T03:15:36.416160Z","epoch_age_seconds":59216,"freshness":"FRESH","line1":"1 48574U 21041X   26145.13583815  .00000395  00000+0  24513-4 0  9993","line2":"2 48574  53.1610 105.4174 0001351 101.3924 258.7230 15.31696835277345","mean_motion":15.31696835,"eccentricity":0.0001351,"inclination_deg":53.161,"raan_deg":105.4174,"arg_perigee_deg":101.3924,"mean_anomaly_deg":258.723,"bstar":2.4513e-5,"rev_number":27734,"period_min":94.013382223905,"perigee_km":469.82414538552,"apogee_km":471.67471449889,"semimajor_km":6848.8864299422,"source":"CELESTRAK","updated_at":"2026-05-25T13:38:16.728035Z"}}